When you browse on this site, cookies collect data to enhance your experience and personalize the content and advertising you see.
Visit our Privacy Policy to learn more. By continuing to use the site, you agree to this use of cookies and data.
  • In United Kingdom
  • List of Countries
  • For 7 days
  • Water Temperature
  • Satellite Maps
  • Weather Map
  • Weather Widgets
  • user-avatar
    Login

    Hourly Weather Manchester

    Today, 24 May, Friday

    Time Temperature Precipitation Wind Pressure Humidity
    00:00 +10°C° 0 mm 3 mps 757 mmHg 91%
    01:00 +10°C° 0 mm 2 mps 757 mmHg 91%
    02:00 +10°C° 0 mm 2 mps 757 mmHg 90%
    03:00 +10°C° 0 mm 2 mps 757 mmHg 90%
    04:00 +10°C° 0 mm 2 mps 758 mmHg 85%
    05:00 +10°C° 0 mm 3 mps 758 mmHg 81%
    06:00 +11°C° 0 mm 3 mps 758 mmHg 76%
    07:00 +12°C° 0 mm 4 mps 758 mmHg 71%
    08:00 +13°C° 0 mm 4 mps 758 mmHg 66%
    09:00 +14°C° 0 mm 5 mps 758 mmHg 61%
    10:00 +15°C° 0 mm 5 mps 758 mmHg 61%
    11:00 +16°C° 0 mm 5 mps 758 mmHg 61%
    12:00 +16°C° 0 mm 6 mps 758 mmHg 60%
    13:00 +16°C° 0 mm 6 mps 758 mmHg 61%
    14:00 +16°C° 0 mm 5 mps 758 mmHg 61%
    15:00 +17°C° 0 mm 5 mps 758 mmHg 62%
    16:00 +16°C° 0 mm 5 mps 758 mmHg 64%
    17:00 +15°C° 0 mm 5 mps 758 mmHg 67%
    18:00 +15°C° 0 mm 4 mps 758 mmHg 69%
    19:00 +14°C° 0 mm 4 mps 758 mmHg 73%
    20:00 +12°C° 0 mm 4 mps 758 mmHg 78%
    21:00 +11°C° 0 mm 3 mps 758 mmHg 83%
    22:00 +11°C° 0 mm 3 mps 758 mmHg 85%
    23:00 +11°C° 0 mm 3 mps 758 mmHg 88%

    Tomorrow, 25 May, Saturday

    Time Temperature Precipitation Wind Pressure Humidity
    00:00 +10°C° 0 mm 3 mps 759 mmHg 91%
    01:00 +10°C° 0 mm 3 mps 758 mmHg 90%
    02:00 +9°C° 0 mm 3 mps 758 mmHg 89%
    03:00 +9°C° 0 mm 2 mps 758 mmHg 88%
    04:00 +9°C° 0 mm 2 mps 759 mmHg 86%
    05:00 +10°C° 0 mm 2 mps 759 mmHg 83%
    06:00 +10°C° 0 mm 2 mps 759 mmHg 81%
    07:00 +13°C° 0 mm 2 mps 759 mmHg 74%
    08:00 +14°C° 0 mm 2 mps 759 mmHg 67%
    09:00 +16°C° 0 mm 2 mps 759 mmHg 60%
    10:00 +17°C° 0 mm 3 mps 759 mmHg 57%
    11:00 +17°C° 0 mm 3 mps 759 mmHg 53%
    12:00 +18°C° 0 mm 3 mps 758 mmHg 50%
    13:00 +18°C° 0 mm 4 mps 758 mmHg 55%
    14:00 +17°C° 0 mm 4 mps 758 mmHg 60%
    15:00 +17°C° 0 mm 4 mps 758 mmHg 65%
    16:00 +16°C° 0.3 mm 3 mps 757 mmHg 71%
    17:00 +15°C° 0.3 mm 2 mps 757 mmHg 77%
    18:00 +14°C° 0.3 mm 2 mps 757 mmHg 83%
    19:00 +15°C° 0.1 mm 2 mps 757 mmHg 85%
    20:00 +14°C° 0.1 mm 3 mps 757 mmHg 87%
    21:00 +14°C° 0.1 mm 4 mps 757 mmHg 89%
    22:00 +14°C° 0 mm 4 mps 756 mmHg 90%
    23:00 +14°C° 0 mm 4 mps 756 mmHg 91%

    Day after tomorrow, 26 May, Sunday

    Time Temperature Precipitation Wind Pressure Humidity
    00:00 +13°C° 0 mm 4 mps 756 mmHg 92%
    01:00 +13°C° 0 mm 4 mps 755 mmHg 92%
    02:00 +13°C° 0 mm 4 mps 755 mmHg 93%
    03:00 +13°C° 0 mm 4 mps 755 mmHg 93%
    04:00 +13°C° 0 mm 4 mps 754 mmHg 92%
    05:00 +13°C° 0 mm 4 mps 754 mmHg 92%
    06:00 +13°C° 0 mm 4 mps 754 mmHg 91%
    07:00 +14°C° 0.3 mm 4 mps 753 mmHg 90%
    08:00 +14°C° 0.3 mm 4 mps 753 mmHg 89%
    09:00 +14°C° 0.3 mm 5 mps 752 mmHg 88%
    10:00 +14°C° 1.4 mm 5 mps 752 mmHg 90%
    11:00 +14°C° 1.4 mm 6 mps 752 mmHg 91%
    12:00 +14°C° 1.4 mm 6 mps 751 mmHg 93%
    13:00 +14°C° 0.3 mm 7 mps 751 mmHg 89%
    14:00 +15°C° 0.3 mm 8 mps 752 mmHg 85%
    15:00 +15°C° 0.3 mm 8 mps 752 mmHg 82%
    16:00 +13°C° 0.1 mm 8 mps 752 mmHg 79%
    17:00 +12°C° 0.1 mm 7 mps 752 mmHg 77%
    18:00 +13°C° 0.1 mm 6 mps 752 mmHg 75%
    19:00 +11°C° 0.1 mm 6 mps 752 mmHg 77%
    20:00 +10°C° 0.1 mm 5 mps 753 mmHg 79%
    21:00 +10°C° 0.1 mm 5 mps 753 mmHg 80%
    22:00 +9°C° 0 mm 5 mps 753 mmHg 82%
    23:00 +10°C° 0 mm 4 mps 753 mmHg 83%

    27 May, Monday

    Time Temperature Precipitation Wind Pressure Humidity
    00:00 +8°C° 0 mm 4 mps 753 mmHg 84%
    01:00 +10°C° 0.1 mm 4 mps 753 mmHg 85%
    02:00 +10°C° 0.1 mm 4 mps 752 mmHg 86%
    03:00 +9°C° 0.1 mm 5 mps 752 mmHg 86%
    04:00 +9°C° 0.2 mm 5 mps 752 mmHg 87%
    05:00 +9°C° 0.2 mm 5 mps 752 mmHg 87%
    06:00 +9°C° 0.2 mm 5 mps 752 mmHg 87%
    07:00 +9°C° 0.4 mm 5 mps 752 mmHg 85%
    08:00 +10°C° 0.4 mm 6 mps 752 mmHg 83%
    09:00 +10°C° 0.4 mm 6 mps 751 mmHg 81%
    10:00 +11°C° 0.3 mm 6 mps 751 mmHg 79%
    11:00 +11°C° 0.3 mm 6 mps 751 mmHg 77%
    12:00 +11°C° 0.3 mm 6 mps 751 mmHg 75%
    13:00 +13°C° 0.2 mm 6 mps 751 mmHg 72%
    14:00 +13°C° 0.2 mm 6 mps 751 mmHg 69%
    15:00 +14°C° 0.2 mm 6 mps 750 mmHg 66%
    16:00 +13°C° 0.1 mm 6 mps 750 mmHg 68%
    17:00 +13°C° 0.1 mm 5 mps 750 mmHg 70%
    18:00 +12°C° 0.1 mm 5 mps 749 mmHg 72%
    19:00 +11°C° 0.1 mm 4 mps 749 mmHg 75%
    20:00 +11°C° 0.1 mm 3 mps 749 mmHg 79%
    21:00 +10°C° 0.1 mm 3 mps 749 mmHg 83%
    22:00 +9°C° 0 mm 2 mps 749 mmHg 85%
    23:00 +9°C° 0 mm 2 mps 749 mmHg 86%

    28 May, Tuesday

    Time Temperature Precipitation Wind Pressure Humidity
    00:00 +9°C° 0 mm 1 mps 749 mmHg 88%
    01:00 +8°C° 0.4 mm 2 mps 750 mmHg 88%
    02:00 +8°C° 0.4 mm 3 mps 750 mmHg 89%
    03:00 +7°C° 0.4 mm 5 mps 751 mmHg 90%
    04:00 +7°C° 0.3 mm 5 mps 752 mmHg 87%
    05:00 +7°C° 0.3 mm 5 mps 752 mmHg 85%
    06:00 +7°C° 0.3 mm 5 mps 753 mmHg 82%
    07:00 +8°C° 0.1 mm 5 mps 754 mmHg 74%
    08:00 +9°C° 0.1 mm 5 mps 755 mmHg 67%
    09:00 +10°C° 0.1 mm 5 mps 756 mmHg 59%
    10:00 +12°C° 0.1 mm 5 mps 757 mmHg 58%
    11:00 +12°C° 0.1 mm 5 mps 757 mmHg 57%
    12:00 +12°C° 0.1 mm 4 mps 758 mmHg 56%
    13:00 +12°C° 0.1 mm 4 mps 758 mmHg 59%
    14:00 +12°C° 0.1 mm 4 mps 758 mmHg 61%
    15:00 +12°C° 0.1 mm 4 mps 758 mmHg 64%
    16:00 +11°C° 0.1 mm 4 mps 759 mmHg 65%
    17:00 +11°C° 0.1 mm 4 mps 759 mmHg 66%
    18:00 +11°C° 0.1 mm 4 mps 759 mmHg 68%
    19:00 +10°C° 0 mm 3 mps 760 mmHg 70%
    20:00 +9°C° 0 mm 3 mps 760 mmHg 73%
    21:00 +8°C° 0 mm 3 mps 761 mmHg 76%
    22:00 +8°C° 0 mm 3 mps 761 mmHg 77%
    23:00 +7°C° 0 mm 3 mps 761 mmHg 79%

    29 May, Wednesday

    Time Temperature Precipitation Wind Pressure Humidity
    00:00 +7°C° 0 mm 3 mps 761 mmHg 80%
    01:00 +7°C° 0 mm 3 mps 761 mmHg 82%
    02:00 +6°C° 0 mm 2 mps 761 mmHg 84%
    03:00 +6°C° 0 mm 2 mps 761 mmHg 86%
    04:00 +7°C° 0 mm 3 mps 761 mmHg 85%
    05:00 +8°C° 0 mm 3 mps 761 mmHg 83%
    06:00 +9°C° 0 mm 3 mps 761 mmHg 81%
    07:00 +10°C° 0.1 mm 4 mps 761 mmHg 76%
    08:00 +10°C° 0.1 mm 5 mps 761 mmHg 71%
    09:00 +10°C° 0.1 mm 5 mps 761 mmHg 66%
    10:00 +12°C° 0 mm 5 mps 761 mmHg 63%
    11:00 +13°C° 0 mm 5 mps 761 mmHg 60%
    12:00 +13°C° 0 mm 6 mps 761 mmHg 58%
    13:00 +13°C° 0 mm 6 mps 760 mmHg 58%
    14:00 +13°C° 0 mm 6 mps 760 mmHg 58%
    15:00 +13°C° 0 mm 5 mps 760 mmHg 59%
    16:00 +12°C° 0.1 mm 5 mps 760 mmHg 65%
    17:00 +11°C° 0.1 mm 4 mps 759 mmHg 71%
    18:00 +10°C° 0.1 mm 4 mps 759 mmHg 78%
    19:00 +10°C° 0.5 mm 3 mps 759 mmHg 82%
    20:00 +9°C° 0.5 mm 3 mps 759 mmHg 86%
    21:00 +8°C° 0.5 mm 3 mps 758 mmHg 89%
    22:00 +9°C° 0.6 mm 2 mps 758 mmHg 91%
    23:00 +9°C° 0.6 mm 2 mps 758 mmHg 93%
    Show more